sat.trackr.live / text

‹ back to catalog

STARLINK-37360

NORAD 68901 · 2026-097G

PAYLOAD ACTIVE UNKNOWN

§ Identity

Operator
Country
US
Launch date
2026-04-30
Launch site
AFWTR
Launch vehicle
Mass (kg)
RCS (m²)

Purposes: comms

External: N2YO · Heavens-Above · Gunter

§ Orbital elements

Epoch: 2026-05-25T02:30:03.415680Z

Period
92.95 min
Inclination
97.2877°
Eccentricity
0.0000521
Mean motion
15.49224072 rev/d
Perigee alt
418.6 km
Apogee alt
419.3 km
Semi-major
6,797.1 km
B*
7.5360e-4
RAAN
340.8726°
Arg perigee
102.7351°
Mean anomaly
257.3959°
Rev number
394

§ Raw data

STARLINK-373601 68901U 26097G   26145.10420620  .00041160  00000+0  75360-3 0  99962 68901  97.2877 340.8726 0000521 102.7351 257.3959 15.49224072  3945

JSON: /api/v1/satellites/68901 · /tle

For live sub-satellite position, see the globe view (requires WebGL).

§ Visibility from observer

Set your observer location to see the next 7 days of passes ≥ 10°. The values pass through the URL so the page stays shareable.

No JS? Fill the form by hand. The geolocation button needs JavaScript.